Simultaneous Nadir Overpasses (SNOs) Predictions

Prediction of SNOs between NOAA-20 and PACE Satellite Orbit:

Table of predicted SNOs for the next 14.0 days since TLE Epoch: 11/23/2024
Index Date (NOAA-20) Time (NOAA-20) Lat,Lon (NOAA-20) SZA (NOAA-20 ) Date (PACE) Time (PACE) Lat,Lon (PACE) SZA (PACE ) Distance(km) Time Diff (sec)
1 11/24/2024 07:44:09 -79.84,-153.55 77.88 11/24/2024 07:44:51 -79.85,-153.63 77.88 1.77 42
2 11/24/2024 08:34:49 79.67, 15.31 101.85 11/24/2024 08:33:55 79.67, 15.42 101.85 2.30 54
3 11/26/2024 11:19:49 79.89, -27.97 102.64 11/26/2024 11:20:50 79.90, -27.97 102.62 0.17 61
4 11/26/2024 12:10:26 -79.66, 141.48 77.75 11/26/2024 12:09:52 -79.66, 141.46 77.74 0.38 34
5 11/28/2024 15:46:07 79.76, -93.28 102.81 11/28/2024 15:45:51 79.75, -93.13 102.79 3.16 16
6 11/30/2024 19:21:46 -79.82, 32.27 76.73 11/30/2024 19:21:48 -79.81, 32.41 76.75 2.96 2
7 12/02/2024 22:57:22 79.77, 158.76 103.54 12/02/2024 22:57:42 79.78, 158.66 103.55 2.28 20
8 12/02/2024 23:46:53 -76.97, -17.11 80.39 12/02/2024 23:45:40 -76.75, -18.50 80.49 43.11 73
9 12/05/2024 02:33:01 -79.84, -75.74 76.05 12/05/2024 02:33:37 -79.84, -75.74 76.07 0.27 36



Historial Predications of SNOs between NOAA-20 and PACE
